Вернуться в каталог

METEOSAT 1 AKM

АктивенGEO
NORAD 13907·ROCKET BODY·🇪🇺 EU

Запущен Nov 23, 1977 с Cape Canaveral Space Force Station

Loading…

TLE

СвежийSource: Space-Track

Эпоха: Sep 14, 2026, 16:36 UTC

1 13907U 77108D   26257.69218822 -.00000052  00000-0  00000-0 0  9991
2 13907   6.0826 279.9681 0089689 157.8822  35.6952  0.97799027113510

Отслеживайте METEOSAT 1 AKM в реальном времени с AllMySat

Download on the App Store